^^
No Wait Weather (KNEBELLE1) Station Historical Data
Daily Summary for May 30, 2019 Units:  English    Metric   Both
Daily Weekly Monthly Yearly Custom
  High: Low: Average:
Temperature: 74.6 °F 56.5 °F 63 °F
Dew Point: 64.32 °F 53.32 °F 57.6 °F
Humidity: 96% 54% 84%
Wind Speed: 4mph 0mph 0.1mph
Wind Gust: 7mph - -
Wind- - NE
Pressure: 29.75 in 29.58 in -
Precipitation: 0.29 in    
Historical Graphs
 
 
Tabular Data for May 30, 2019
Time Temperature Dew Point Pressure Wind Wind Speed Wind Gust Humidity Rainfall Rate (Hourly) solar
00:04 57.6 °F 54.69 °F 29.62 in Calm     90% 0 in WeatherCatV3.04B91 W/m2
00:09 57.6 °F 54.69 °F 29.62 in Calm     90% 0 in WeatherCatV3.04B91 W/m2
00:14 57.6 °F 54.69 °F 29.62 in Calm     90% 0 in WeatherCatV3.04B91 W/m2
00:19 57.8 °F 54.88 °F 29.62 in Calm     90% 0 in WeatherCatV3.04B91 W/m2
00:24 57.8 °F 54.88 °F 29.62 in Calm     90% 0 in WeatherCatV3.04B91 W/m2
00:29 58 °F 55.08 °F 29.62 in Calm     90% 0 in WeatherCatV3.04B91 W/m2
00:34 58 °F 55.08 °F 29.62 in Calm     90% 0 in WeatherCatV3.04B91 W/m2
00:39 58 °F 55.08 °F 29.62 in Calm     90% 0 in WeatherCatV3.04B91 W/m2
00:44 57.8 °F 54.88 °F 29.61 in Calm     90% 0 in WeatherCatV3.04B91 W/m2
00:49 57.8 °F 54.88 °F 29.61 in Calm     90% 0 in WeatherCatV3.04B91 W/m2
00:54 57.6 °F 54.99 °F 29.61 in Calm     91% 0 in WeatherCatV3.04B91 W/m2
00:59 57.6 °F 54.99 °F 29.61 in Calm     91% 0 in WeatherCatV3.04B91 W/m2
01:04 57.6 °F 54.99 °F 29.61 in Calm     91% 0 in WeatherCatV3.04B91 W/m2
01:09 57.5 °F 54.89 °F 29.61 in Calm     91% 0 in WeatherCatV3.04B91 W/m2
01:14 57.5 °F 54.89 °F 29.61 in Calm     91% 0 in WeatherCatV3.04B91 W/m2
01:19 57.5 °F 54.89 °F 29.61 in Calm     91% 0 in WeatherCatV3.04B91 W/m2
01:24 57.5 °F 54.89 °F 29.61 in Calm     91% 0 in WeatherCatV3.04B91 W/m2
01:29 57.5 °F 54.89 °F 29.60 in Calm     91% 0 in WeatherCatV3.04B91 W/m2
01:34 57.5 °F 54.89 °F 29.60 in Calm     91% 0 in WeatherCatV3.04B91 W/m2
01:39 57.5 °F 54.89 °F 29.60 in Calm     91% 0 in WeatherCatV3.04B91 W/m2
01:44 57.5 °F 54.89 °F 29.60 in Calm     91% 0 in WeatherCatV3.04B91 W/m2
01:49 57.5 °F 54.89 °F 29.60 in Calm     91% 0 in WeatherCatV3.04B91 W/m2
01:54 57.5 °F 54.89 °F 29.60 in Calm     91% 0 in WeatherCatV3.04B91 W/m2
01:58 57.5 °F 54.89 °F 29.60 in Calm     91% 0 in WeatherCatV3.04B91 W/m2
02:04 57.3 °F 54.69 °F 29.59 in Calm     91% 0 in WeatherCatV3.04B91 W/m2
02:09 57.3 °F 54.69 °F 29.59 in Calm     91% 0 in WeatherCatV3.04B91 W/m2
02:14 57.3 °F 54.39 °F 29.59 in Calm     90% 0 in WeatherCatV3.04B91 W/m2
02:19 57.3 °F 54.39 °F 29.59 in Calm     90% 0 in WeatherCatV3.04B91 W/m2
02:24 57.5 °F 54.28 °F 29.59 in Calm   2 mph 89% 0 in WeatherCatV3.04B91 W/m2
02:29 57.5 °F 54.28 °F 29.59 in Calm     89% 0 in WeatherCatV3.04B91 W/m2
02:34 57.6 °F 54.38 °F 29.59 in Calm     89% 0 in WeatherCatV3.04B91 W/m2
02:39 57.6 °F 54.07 °F 29.59 in Calm     88% 0 in WeatherCatV3.04B91 W/m2
02:44 57.6 °F 54.07 °F 29.59 in Calm     88% 0 in WeatherCatV3.04B91 W/m2
02:49 57.6 °F 54.07 °F 29.59 in Calm     88% 0 in WeatherCatV3.04B91 W/m2
02:53 57.6 °F 54.07 °F 29.59 in Calm     88% 0 in WeatherCatV3.04B91 W/m2
02:59 57.6 °F 54.07 °F 29.58 in Calm   1 mph 88% 0 in WeatherCatV3.04B91 W/m2
03:04 57.6 °F 54.07 °F 29.58 in Calm     88% 0 in WeatherCatV3.04B91 W/m2
03:09 57.8 °F 54.27 °F 29.58 in Calm   1 mph 88% 0 in WeatherCatV3.04B91 W/m2
03:14 57.8 °F 53.95 °F 29.58 in Calm     87% 0 in WeatherCatV3.04B91 W/m2
03:19 57.6 °F 53.76 °F 29.58 in Calm     87% 0 in WeatherCatV3.04B91 W/m2
03:24 57.6 °F 53.76 °F 29.58 in Calm     87% 0 in WeatherCatV3.04B91 W/m2
03:28 57.6 °F 53.76 °F 29.58 in Calm     87% 0 in WeatherCatV3.04B91 W/m2
03:34 57.6 °F 53.76 °F 29.59 in Calm     87% 0 in WeatherCatV3.04B91 W/m2
03:39 57.6 °F 53.76 °F 29.59 in Calm     87% 0 in WeatherCatV3.04B91 W/m2
03:44 57.6 °F 53.76 °F 29.59 in Calm     87% 0 in WeatherCatV3.04B91 W/m2
03:48 57.6 °F 53.76 °F 29.59 in Calm     87% 0 in WeatherCatV3.04B91 W/m2
03:54 57.6 °F 53.76 °F 29.59 in Calm     87% 0 in WeatherCatV3.04B91 W/m2
03:59 57.6 °F 53.76 °F 29.59 in Calm     87% 0 in WeatherCatV3.04B91 W/m2
04:03 57.6 °F 53.76 °F 29.59 in Calm     87% 0 in WeatherCatV3.04B91 W/m2
04:08 57.6 °F 53.44 °F 29.59 in Calm     86% 0 in WeatherCatV3.04B91 W/m2
04:14 57.6 °F 53.44 °F 29.59 in Calm     86% 0 in WeatherCatV3.04B91 W/m2
04:19 57.6 °F 53.44 °F 29.59 in Calm     86% 0 in WeatherCatV3.04B91 W/m2
04:23 57.6 °F 53.44 °F 29.59 in Calm     86% 0 in WeatherCatV3.04B91 W/m2
04:29 57.8 °F 53.64 °F 29.59 in Calm     86% 0 in WeatherCatV3.04B91 W/m2
04:33 57.8 °F 53.32 °F 29.59 in Calm     85% 0 in WeatherCatV3.04B91 W/m2
04:38 57.8 °F 53.32 °F 29.59 in Calm     85% 0 in WeatherCatV3.04B91 W/m2
04:44 57.8 °F 53.64 °F 29.59 in Calm     86% 0 in WeatherCatV3.04B91 W/m2
04:50 57.8 °F 53.64 °F 29.59 in Calm   2 mph 86% 0 in WeatherCatV3.04B91 W/m2
04:54 57.8 °F 53.95 °F 29.59 in Calm     87% 0 in WeatherCatV3.04B91 W/m2
04:59 57.6 °F 53.76 °F 29.59 in Calm     87% 0 in WeatherCatV3.04B91 W/m2
05:04 57.5 °F 53.97 °F 29.59 in Calm     88% 0 in WeatherCatV3.04B91 W/m2
05:09 57.3 °F 54.08 °F 29.59 in Calm     89% 0 in WeatherCatV3.04B91 W/m2
05:14 57.2 °F 53.98 °F 29.59 in Calm     89% 0 in WeatherCatV3.04B91 W/m2
05:20 57 °F 54.09 °F 29.58 in Calm     90% 0 in WeatherCatV3.04B91 W/m2
05:25 57 °F 54.09 °F 29.58 in Calm     90% 0 in WeatherCatV3.04B91 W/m2
05:29 56.9 °F 54.3 °F 29.58 in Calm     91% 0 in WeatherCatV3.04B91 W/m2
05:35 56.7 °F 54.1 °F 29.58 in Calm     91% 0 in WeatherCatV3.04B91 W/m2
05:39 56.7 °F 54.1 °F 29.58 in Calm     91% 0 in WeatherCatV3.04B91 W/m2
05:45 56.7 °F 54.4 °F 29.59 in Calm     92% 0 in WeatherCatV3.04B91 W/m2
05:49 56.6 °F 54.3 °F 29.59 in Calm     92% 0 in WeatherCatV3.04B91 W/m2
05:54 56.6 °F 54.3 °F 29.59 in Calm     92% 0 in WeatherCatV3.04B91 W/m2
05:59 56.6 °F 54.6 °F 29.59 in Calm     93% 0 in WeatherCatV3.04B91 W/m2
06:04 56.6 °F 54.6 °F 29.59 in Calm     93% 0 in WeatherCatV3.04B91 W/m2
06:09 56.6 °F 54.6 °F 29.59 in Calm     93% 0 in WeatherCatV3.04B91 W/m2
06:14 56.6 °F 54.6 °F 29.59 in Calm     93% 0 in WeatherCatV3.04B91 W/m2
06:19 56.6 °F 54.6 °F 29.59 in Calm     93% 0 in WeatherCatV3.04B91 W/m2
06:24 56.5 °F 54.5 °F 29.59 in Calm     93% 0 in WeatherCatV3.04B91 W/m2
06:29 56.5 °F 54.79 °F 29.59 in Calm     94% 0 in WeatherCatV3.04B91 W/m2
06:34 56.6 °F 54.89 °F 29.60 in Calm     94% 0 in WeatherCatV3.04B91 W/m2
06:39 56.6 °F 54.89 °F 29.60 in Calm     94% 0 in WeatherCatV3.04B91 W/m2
06:44 56.6 °F 54.89 °F 29.60 in Calm     94% 0 in WeatherCatV3.04B91 W/m2
06:49 56.6 °F 54.89 °F 29.61 in Calm     94% 0 in WeatherCatV3.04B91 W/m2
06:54 56.7 °F 55.28 °F 29.61 in Calm     95% 0 in WeatherCatV3.04B91 W/m2
06:59 56.7 °F 55.28 °F 29.61 in Calm     95% 0 in WeatherCatV3.04B91 W/m2
07:04 56.7 °F 55.28 °F 29.61 in Calm     95% 0 in WeatherCatV3.04B91 W/m2
07:09 56.9 °F 55.48 °F 29.61 in Calm     95% 0 in WeatherCatV3.04B91 W/m2
07:14 57 °F 55.58 °F 29.61 in Calm     95% 0 in WeatherCatV3.04B91 W/m2
07:19 57 °F 55.58 °F 29.61 in Calm     95% 0 in WeatherCatV3.04B91 W/m2
07:24 57.2 °F 55.78 °F 29.61 in Calm     95% 0 in WeatherCatV3.04B91 W/m2
07:29 57.2 °F 55.78 °F 29.61 in Calm     95% 0 in WeatherCatV3.04B91 W/m2
07:34 57.3 °F 55.88 °F 29.61 in Calm     95% 0 in WeatherCatV3.04B91 W/m2
07:39 57.3 °F 55.88 °F 29.61 in Calm     95% 0 in WeatherCatV3.04B91 W/m2
07:44 57.3 °F 55.88 °F 29.61 in Calm     95% 0 in WeatherCatV3.04B91 W/m2
07:49 57.3 °F 55.88 °F 29.62 in Calm     95% 0 in WeatherCatV3.04B91 W/m2
07:54 57.3 °F 55.88 °F 29.62 in Calm     95% 0 in WeatherCatV3.04B91 W/m2
07:59 57.3 °F 55.88 °F 29.62 in Calm     95% 0 in WeatherCatV3.04B91 W/m2
08:04 57.5 °F 56.08 °F 29.62 in Calm     95% 0 in WeatherCatV3.04B91 W/m2
08:09 57.5 °F 56.08 °F 29.62 in Calm     95% 0 in WeatherCatV3.04B91 W/m2
08:14 57.5 °F 56.08 °F 29.62 in Calm     95% 0 in WeatherCatV3.04B91 W/m2
08:19 57.6 °F 56.18 °F 29.62 in Calm     95% 0 in WeatherCatV3.04B91 W/m2
08:24 57.8 °F 56.08 °F 29.62 in Calm     94% 0 in WeatherCatV3.04B91 W/m2
08:29 58 °F 56.28 °F 29.62 in Calm     94% 0 in WeatherCatV3.04B91 W/m2
08:34 58 °F 56.28 °F 29.63 in Calm     94% 0 in WeatherCatV3.04B91 W/m2
08:39 57.8 °F 56.08 °F 29.63 in Calm     94% 0 in WeatherCatV3.04B91 W/m2
08:44 57.8 °F 56.08 °F 29.63 in Calm     94% 0.07 in WeatherCatV3.04B91 W/m2
08:49 57.6 °F 55.88 °F 29.63 in Calm     94% 0.1 in WeatherCatV3.04B91 W/m2
08:54 57.8 °F 56.08 °F 29.63 in Calm     94% 0.07 in WeatherCatV3.04B91 W/m2
08:59 58 °F 56.28 °F 29.63 in Calm     94% 0.04 in WeatherCatV3.04B91 W/m2
09:04 58.1 °F 56.38 °F 29.63 in Calm     94% 0 in WeatherCatV3.04B91 W/m2
09:09 58.1 °F 56.38 °F 29.63 in Calm     94% 0 in WeatherCatV3.04B91 W/m2
09:14 58.3 °F 56.58 °F 29.63 in Calm     94% 0 in WeatherCatV3.04B91 W/m2
09:19 58.4 °F 56.68 °F 29.63 in Calm     94% 0 in WeatherCatV3.04B91 W/m2
09:24 58.7 °F 57.27 °F 29.63 in Calm     95% 0 in WeatherCatV3.04B91 W/m2
09:29 59.5 °F 58.06 °F 29.63 in Calm     95% 0 in WeatherCatV3.04B91 W/m2
09:34 60.1 °F 58.36 °F 29.63 in Calm     94% 0 in WeatherCatV3.04B91 W/m2
09:39 60.1 °F 58.07 °F 29.63 in Calm     93% 0 in WeatherCatV3.04B91 W/m2
09:44 60.1 °F 57.76 °F 29.63 in Calm     92% 0 in WeatherCatV3.04B91 W/m2
09:49 60.1 °F 57.76 °F 29.63 in Calm     92% 0 in WeatherCatV3.04B91 W/m2
09:54 60.1 °F 57.46 °F 29.63 in Calm     91% 0 in WeatherCatV3.04B91 W/m2
09:59 60.5 °F 57.86 °F 29.63 in Calm     91% 0 in WeatherCatV3.04B91 W/m2
10:04 61 °F 57.73 °F 29.63 in Calm     89% 0 in WeatherCatV3.04B91 W/m2
10:09 61.5 °F 57.91 °F 29.63 in Calm   4 mph 88% 0 in WeatherCatV3.04B91 W/m2
10:14 61.8 °F 57.56 °F 29.63 in Calm     86% 0 in WeatherCatV3.04B91 W/m2
10:19 62.3 °F 57.4 °F 29.63 in Calm     84% 0 in WeatherCatV3.04B91 W/m2
10:24 62.7 °F 57.46 °F 29.63 in Calm   1 mph 83% 0 in WeatherCatV3.04B91 W/m2
10:29 63.4 °F 57.46 °F 29.63 in Calm   1 mph 81% 0 in WeatherCatV3.04B91 W/m2
10:34 63.9 °F 57.6 °F 29.63 in Calm     80% 0 in WeatherCatV3.04B91 W/m2
10:39 64.5 °F 57.84 °F 29.63 in Calm   1 mph 79% 0 in WeatherCatV3.04B91 W/m2
10:44 64.8 °F 57.77 °F 29.63 in Calm     78% 0 in WeatherCatV3.04B91 W/m2
10:49 65 °F 56.5 °F 29.63 in Calm     74% 0 in WeatherCatV3.04B91 W/m2
10:54 65.5 °F 57.36 °F 29.63 in Calm     75% 0 in WeatherCatV3.04B91 W/m2
10:59 65.8 °F 57.27 °F 29.63 in Calm     74% 0 in WeatherCatV3.04B91 W/m2
11:04 66.1 °F 56.8 °F 29.62 in Calm     72% 0 in WeatherCatV3.04B91 W/m2
11:09 66.8 °F 57.47 °F 29.62 in Calm   1 mph 72% 0 in WeatherCatV3.04B91 W/m2
11:14 66.9 °F 55.58 °F 29.62 in Calm     67% 0 in WeatherCatV3.04B91 W/m2
11:19 67.1 °F 54.93 °F 29.63 in Calm     65% 0 in WeatherCatV3.04B91 W/m2
11:24 67.4 °F 55.64 °F 29.63 in Calm     66% 0 in WeatherCatV3.04B91 W/m2
11:29 68.1 °F 55.45 °F 29.63 in WSW 1 mph 3 mph 64% 0 in WeatherCatV3.04B91 W/m2
11:34 68.6 °F 55.49 °F 29.64 in NNE 4 mph 4 mph 63% 0 in WeatherCatV3.04B91 W/m2
11:39 69.1 °F 54.62 °F 29.64 in Calm   6 mph 60% 0 in WeatherCatV3.04B91 W/m2
11:44 69.1 °F 55.52 °F 29.64 in Calm     62% 0 in WeatherCatV3.04B91 W/m2
11:49 68.9 °F 55.33 °F 29.64 in Calm   1 mph 62% 0 in WeatherCatV3.04B91 W/m2
11:54 69.1 °F 55.52 °F 29.64 in ENE 4 mph 6 mph 62% 0 in WeatherCatV3.04B91 W/m2
11:59 69.3 °F 56.15 °F 29.64 in Calm   3 mph 63% 0 in WeatherCatV3.04B91 W/m2
12:04 69.4 °F 55.8 °F 29.64 in Calm   3 mph 62% 0 in WeatherCatV3.04B91 W/m2
12:09 69.6 °F 55.99 °F 29.64 in Calm     62% 0 in WeatherCatV3.04B91 W/m2
12:14 69.8 °F 57.06 °F 29.64 in Calm   2 mph 64% 0 in WeatherCatV3.04B91 W/m2
12:19 69.9 °F 57.15 °F 29.64 in Calm     64% 0 in WeatherCatV3.04B91 W/m2
12:24 70.3 °F 56.65 °F 29.64 in Calm   1 mph 62% 0 in WeatherCatV3.04B91 W/m2
12:29 70.4 °F 55.84 °F 29.64 in Calm   4 mph 60% 0 in WeatherCatV3.04B91 W/m2
12:34 70.6 °F 56.03 °F 29.64 in NNE 3 mph 3 mph 60% 0 in WeatherCatV3.04B91 W/m2
12:39 70.3 °F 54.81 °F 29.64 in Calm   4 mph 58% 0 in WeatherCatV3.04B91 W/m2
12:44 70.1 °F 54.62 °F 29.64 in Calm   2 mph 58% 0 in WeatherCatV3.04B91 W/m2
12:49 70.3 °F 56.2 °F 29.64 in North 1 mph 4 mph 61% 0 in WeatherCatV3.04B91 W/m2
12:54 70.6 °F 55.56 °F 29.64 in Calm     59% 0 in WeatherCatV3.04B91 W/m2
12:59 70.9 °F 56.31 °F 29.64 in Calm   2 mph 60% 0 in WeatherCatV3.04B91 W/m2
13:04 71.1 °F 56.03 °F 29.65 in Calm   3 mph 59% 0 in WeatherCatV3.04B91 W/m2
13:09 71.3 °F 55.27 °F 29.65 in Calm     57% 0 in WeatherCatV3.04B91 W/m2
13:14 71.3 °F 56.68 °F 29.65 in Calm   1 mph 60% 0 in WeatherCatV3.04B91 W/m2
13:19 71.5 °F 56.41 °F 29.65 in Calm   1 mph 59% 0 in WeatherCatV3.04B91 W/m2
13:24 71.8 °F 57.15 °F 29.65 in Calm   3 mph 60% 0 in WeatherCatV3.04B91 W/m2
13:29 71.8 °F 56.21 °F 29.65 in Calm   5 mph 58% 0 in WeatherCatV3.04B91 W/m2
13:34 71.8 °F 56.21 °F 29.65 in Calm   1 mph 58% 0 in WeatherCatV3.04B91 W/m2
13:39 72.1 °F 56.49 °F 29.65 in NE 2 mph 3 mph 58% 0 in WeatherCatV3.04B91 W/m2
13:44 72.1 °F 56.97 °F 29.65 in Calm   1 mph 59% 0 in WeatherCatV3.04B91 W/m2
13:49 72.3 °F 58.08 °F 29.65 in Calm   3 mph 61% 0 in WeatherCatV3.04B91 W/m2
13:54 72.3 °F 58.08 °F 29.65 in NE 1 mph 4 mph 61% 0 in WeatherCatV3.04B91 W/m2
13:59 72.5 °F 56.87 °F 29.65 in Calm   3 mph 58% 0 in WeatherCatV3.04B91 W/m2
14:04 72.5 °F 56.38 °F 29.66 in NNE 1 mph 7 mph 57% 0 in WeatherCatV3.04B91 W/m2
14:09 72.3 °F 57.15 °F 29.66 in Calm   4 mph 59% 0 in WeatherCatV3.04B91 W/m2
14:14 72.7 °F 56.57 °F 29.66 in Calm   5 mph 57% 0 in WeatherCatV3.04B91 W/m2
14:19 73 °F 57.33 °F 29.66 in Calm   4 mph 58% 0 in WeatherCatV3.04B91 W/m2
14:24 73.3 °F 57.13 °F 29.66 in Calm   2 mph 57% 0 in WeatherCatV3.04B91 W/m2
14:29 73.2 °F 57.52 °F 29.66 in ENE 1 mph 2 mph 58% 0 in WeatherCatV3.04B91 W/m2
14:34 73.3 °F 57.13 °F 29.66 in Calm   1 mph 57% 0 in WeatherCatV3.04B91 W/m2
14:39 73.3 °F 56.14 °F 29.66 in Calm   3 mph 55% 0 in WeatherCatV3.04B91 W/m2
14:44 73.3 °F 56.64 °F 29.66 in Calm     56% 0 in WeatherCatV3.04B91 W/m2
14:49 73.5 °F 57.32 °F 29.65 in Calm   1 mph 57% 0 in WeatherCatV3.04B91 W/m2
14:54 73.5 °F 58.28 °F 29.65 in Calm     59% 0 in WeatherCatV3.04B91 W/m2
14:59 73.9 °F 56.7 °F 29.65 in Calm     55% 0 in WeatherCatV3.04B91 W/m2
15:04 74.2 °F 56.98 °F 29.65 in Calm     55% 0 in WeatherCatV3.04B91 W/m2
15:09 74.4 °F 57.16 °F 29.65 in NNE 1 mph 4 mph 55% 0 in WeatherCatV3.04B91 W/m2
15:14 74.6 °F 56.84 °F 29.65 in Calm   3 mph 54% 0 in WeatherCatV3.04B91 W/m2
15:19 74.2 °F 56.98 °F 29.65 in NNE 3 mph 4 mph 55% 0 in WeatherCatV3.04B91 W/m2
15:24 74 °F 58.27 °F 29.65 in Calm     58% 0 in WeatherCatV3.04B91 W/m2
15:29 73.5 °F 57.32 °F 29.65 in Calm     57% 0 in WeatherCatV3.04B91 W/m2
15:34 73.2 °F 57.52 °F 29.65 in Calm   3 mph 58% 0 in WeatherCatV3.04B91 W/m2
15:39 73 °F 56.85 °F 29.65 in ENE 1 mph 1 mph 57% 0 in WeatherCatV3.04B91 W/m2
15:44 72.7 °F 56.08 °F 29.65 in Calm   2 mph 56% 0 in WeatherCatV3.04B91 W/m2
15:49 72.5 °F 56.87 °F 29.66 in Calm   1 mph 58% 0 in WeatherCatV3.04B91 W/m2
15:54 72.3 °F 57.15 °F 29.66 in Calm   1 mph 59% 0 in WeatherCatV3.04B91 W/m2
15:59 72.3 °F 57.62 °F 29.66 in Calm     60% 0 in WeatherCatV3.04B91 W/m2
16:04 72.1 °F 57.89 °F 29.66 in Calm     61% 0 in WeatherCatV3.04B91 W/m2
16:09 72 °F 60.43 °F 29.66 in Calm     67% 0 in WeatherCatV3.04B91 W/m2
16:14 70.8 °F 60.52 °F 29.66 in NE 1 mph 5 mph 70% 0.32 in WeatherCatV3.04B91 W/m2
16:19 67.3 °F 59.09 °F 29.68 in Calm   1 mph 75% 0.64 in WeatherCatV3.04B91 W/m2
16:24 65.6 °F 58.9 °F 29.68 in Calm     79% 0.18 in WeatherCatV3.04B91 W/m2
16:29 64.7 °F 59.07 °F 29.68 in Calm     82% 0.07 in WeatherCatV3.04B91 W/m2
16:34 64.3 °F 59.36 °F 29.68 in Calm     84% 0.05 in WeatherCatV3.04B91 W/m2
16:39 64.3 °F 60.02 °F 29.68 in Calm     86% 0.33 in WeatherCatV3.04B91 W/m2
16:44 64.5 °F 60.86 °F 29.68 in Calm     88% 0.26 in WeatherCatV3.04B91 W/m2
16:49 64.7 °F 61.38 °F 29.67 in Calm     89% 0.09 in WeatherCatV3.04B91 W/m2
16:54 65.3 °F 62.6 °F 29.67 in Calm     91% 0.05 in WeatherCatV3.04B91 W/m2
16:59 65.6 °F 62.9 °F 29.67 in Calm     91% 0.04 in WeatherCatV3.04B91 W/m2
17:04 65.5 °F 62.8 °F 29.67 in Calm     91% 0 in WeatherCatV3.04B91 W/m2
17:09 65.5 °F 63.11 °F 29.67 in Calm     92% 0 in WeatherCatV3.04B91 W/m2
17:14 65.5 °F 63.11 °F 29.67 in Calm     92% 0 in WeatherCatV3.04B91 W/m2
17:19 65.5 °F 63.42 °F 29.69 in Calm     93% 0 in WeatherCatV3.04B91 W/m2
17:24 65.5 °F 63.42 °F 29.69 in Calm     93% 0 in WeatherCatV3.04B91 W/m2
17:29 65.3 °F 63.22 °F 29.69 in Calm     93% 0 in WeatherCatV3.04B91 W/m2
17:34 65.3 °F 63.22 °F 29.68 in Calm     93% 0 in WeatherCatV3.04B91 W/m2
17:39 65.6 °F 63.82 °F 29.68 in Calm     94% 0 in WeatherCatV3.04B91 W/m2
17:44 66 °F 64.22 °F 29.68 in Calm     94% 0 in WeatherCatV3.04B91 W/m2
17:49 66 °F 63.91 °F 29.67 in Calm     93% 0 in WeatherCatV3.04B91 W/m2
17:54 65.8 °F 64.02 °F 29.67 in Calm     94% 0 in WeatherCatV3.04B91 W/m2
17:59 66.1 °F 64.32 °F 29.67 in Calm     94% 0 in WeatherCatV3.04B91 W/m2
18:04 66.4 °F 64.31 °F 29.66 in Calm     93% 0 in WeatherCatV3.04B91 W/m2
18:09 66.3 °F 63.9 °F 29.66 in Calm     92% 0 in WeatherCatV3.04B91 W/m2
18:14 66.4 °F 64.31 °F 29.66 in Calm     93% 0 in WeatherCatV3.04B91 W/m2
18:19 66.6 °F 64.2 °F 29.67 in Calm     92% 0 in WeatherCatV3.04B91 W/m2
18:24 66.4 °F 64 °F 29.67 in Calm     92% 0 in WeatherCatV3.04B91 W/m2
18:29 66.3 °F 63.9 °F 29.67 in Calm     92% 0 in WeatherCatV3.04B91 W/m2
18:34 66.3 °F 63.59 °F 29.67 in Calm     91% 0 in WeatherCatV3.04B91 W/m2
18:39 66.1 °F 63.7 °F 29.67 in Calm     92% 0 in WeatherCatV3.04B91 W/m2
18:44 66.1 °F 63.7 °F 29.67 in Calm     92% 0 in WeatherCatV3.04B91 W/m2
18:49 66.1 °F 63.7 °F 29.69 in Calm     92% 0 in WeatherCatV3.04B91 W/m2
18:54 66.1 °F 63.7 °F 29.69 in Calm     92% 0 in WeatherCatV3.04B91 W/m2
18:59 66.3 °F 63.9 °F 29.69 in Calm     92% 0 in WeatherCatV3.04B91 W/m2
19:04 66.3 °F 63.9 °F 29.69 in Calm     92% 0 in WeatherCatV3.04B91 W/m2
19:09 66.3 °F 63.9 °F 29.69 in Calm     92% 0 in WeatherCatV3.04B91 W/m2
19:14 66.1 °F 63.39 °F 29.69 in Calm     91% 0 in WeatherCatV3.04B91 W/m2
19:19 66.3 °F 63.59 °F 29.69 in Calm     91% 0 in WeatherCatV3.04B91 W/m2
19:24 66.3 °F 63.27 °F 29.69 in Calm     90% 0 in WeatherCatV3.04B91 W/m2
19:29 66.3 °F 62.95 °F 29.69 in Calm     89% 0 in WeatherCatV3.04B91 W/m2
19:34 66.3 °F 62.95 °F 29.70 in Calm     89% 0 in WeatherCatV3.04B91 W/m2
19:39 66.3 °F 62.95 °F 29.70 in Calm     89% 0 in WeatherCatV3.04B91 W/m2
19:44 66.1 °F 62.76 °F 29.70 in Calm     89% 0 in WeatherCatV3.04B91 W/m2
19:49 65.8 °F 62.46 °F 29.70 in Calm     89% 0 in WeatherCatV3.04B91 W/m2
19:54 65.6 °F 62.26 °F 29.70 in Calm     89% 0 in WeatherCatV3.04B91 W/m2
19:59 65.5 °F 62.17 °F 29.70 in Calm     89% 0 in WeatherCatV3.04B91 W/m2
20:04 65.3 °F 62.29 °F 29.70 in Calm     90% 0 in WeatherCatV3.04B91 W/m2
20:09 65 °F 61.67 °F 29.70 in Calm     89% 0 in WeatherCatV3.04B91 W/m2
20:14 64.8 °F 61.48 °F 29.70 in Calm     89% 0 in WeatherCatV3.04B91 W/m2
20:19 64.7 °F 61.69 °F 29.70 in Calm     90% 0 in WeatherCatV3.04B91 W/m2
20:24 64.7 °F 61.69 °F 29.70 in Calm     90% 0 in WeatherCatV3.04B91 W/m2
20:29 64.7 °F 61.69 °F 29.70 in Calm     90% 0 in WeatherCatV3.04B91 W/m2
20:34 64.7 °F 62.01 °F 29.70 in Calm     91% 0 in WeatherCatV3.04B91 W/m2
20:39 64.5 °F 61.81 °F 29.70 in Calm     91% 0 in WeatherCatV3.04B91 W/m2
20:44 64.5 °F 61.81 °F 29.70 in Calm     91% 0 in WeatherCatV3.04B91 W/m2
20:49 64.3 °F 61.61 °F 29.71 in Calm     91% 0 in WeatherCatV3.04B91 W/m2
20:54 64.2 °F 61.51 °F 29.71 in Calm     91% 0 in WeatherCatV3.04B91 W/m2
20:59 64 °F 61.62 °F 29.71 in Calm     92% 0 in WeatherCatV3.04B91 W/m2
21:04 63.9 °F 61.53 °F 29.71 in Calm     92% 0 in WeatherCatV3.04B91 W/m2
21:09 63.9 °F 61.53 °F 29.71 in Calm     92% 0 in WeatherCatV3.04B91 W/m2
21:14 63.5 °F 61.13 °F 29.71 in Calm     92% 0 in WeatherCatV3.04B91 W/m2
21:19 63.4 °F 61.03 °F 29.71 in Calm     92% 0 in WeatherCatV3.04B91 W/m2
21:24 63.2 °F 60.83 °F 29.71 in Calm     92% 0 in WeatherCatV3.04B91 W/m2
21:29 63.1 °F 61.04 °F 29.71 in Calm     93% 0 in WeatherCatV3.04B91 W/m2
21:34 62.9 °F 60.84 °F 29.72 in Calm     93% 0 in WeatherCatV3.04B91 W/m2
21:39 62.7 °F 60.64 °F 29.72 in Calm     93% 0 in WeatherCatV3.04B91 W/m2
21:44 62.7 °F 60.64 °F 29.72 in Calm     93% 0 in WeatherCatV3.04B91 W/m2
21:49 62.4 °F 60.35 °F 29.72 in Calm     93% 0 in WeatherCatV3.04B91 W/m2
21:54 62.3 °F 60.55 °F 29.72 in Calm     94% 0 in WeatherCatV3.04B91 W/m2
21:59 62.1 °F 60.35 °F 29.72 in Calm     94% 0 in WeatherCatV3.04B91 W/m2
22:04 62.1 °F 60.35 °F 29.73 in Calm     94% 0 in WeatherCatV3.04B91 W/m2
22:09 62.1 °F 60.35 °F 29.73 in Calm     94% 0 in WeatherCatV3.04B91 W/m2
22:14 62.1 °F 60.35 °F 29.73 in Calm     94% 0 in WeatherCatV3.04B91 W/m2
22:19 62.1 °F 60.35 °F 29.73 in Calm     94% 0 in WeatherCatV3.04B91 W/m2
22:24 62.1 °F 60.65 °F 29.73 in Calm     95% 0 in WeatherCatV3.04B91 W/m2
22:29 62.1 °F 60.65 °F 29.73 in Calm     95% 0 in WeatherCatV3.04B91 W/m2
22:34 62 °F 60.55 °F 29.73 in Calm     95% 0 in WeatherCatV3.04B91 W/m2
22:39 62 °F 60.55 °F 29.73 in Calm     95% 0 in WeatherCatV3.04B91 W/m2
22:44 61.8 °F 60.35 °F 29.73 in Calm     95% 0 in WeatherCatV3.04B91 W/m2
22:49 61.8 °F 60.35 °F 29.74 in Calm     95% 0 in WeatherCatV3.04B91 W/m2
22:54 61.8 °F 60.35 °F 29.74 in Calm     95% 0 in WeatherCatV3.04B91 W/m2
22:59 61.6 °F 60.15 °F 29.74 in Calm     95% 0 in WeatherCatV3.04B91 W/m2
23:04 61.6 °F 60.15 °F 29.75 in Calm     95% 0 in WeatherCatV3.04B91 W/m2
23:09 61.3 °F 59.85 °F 29.75 in Calm     95% 0 in WeatherCatV3.04B91 W/m2
23:14 61.2 °F 59.75 °F 29.75 in Calm     95% 0 in WeatherCatV3.04B91 W/m2
23:19 61 °F 59.55 °F 29.75 in Calm     95% 0 in WeatherCatV3.04B91 W/m2
23:24 60.9 °F 59.75 °F 29.75 in Calm     96% 0 in WeatherCatV3.04B91 W/m2
23:29 60.7 °F 59.55 °F 29.75 in Calm     96% 0 in WeatherCatV3.04B91 W/m2
23:34 60.5 °F 59.35 °F 29.75 in Calm     96% 0 in WeatherCatV3.04B91 W/m2
23:39 60.5 °F 59.35 °F 29.75 in Calm     96% 0 in WeatherCatV3.04B91 W/m2
23:44 60.5 °F 59.35 °F 29.75 in Calm     96% 0 in WeatherCatV3.04B91 W/m2
23:49 60.5 °F 59.35 °F 29.75 in Calm     96% 0 in WeatherCatV3.04B91 W/m2
23:54 60.2 °F 59.05 °F 29.75 in Calm     96% 0 in WeatherCatV3.04B91 W/m2
23:59 60.1 °F 58.95 °F 29.75 in Calm     96% 0 in WeatherCatV3.04B91 W/m2
Bellevue, Nebraska, USA
Compliments of Weather Underground - 3.25 mb